Terug naar catalogus

COSMOS 1476

ActiefNavigatieLEO
NORAD 14174·PAYLOAD·🇷🇺 Russia

Gelanceerd Jul 6, 1983 vanaf Plesetsk Cosmodrome

Loading…

Volgende Passages (komende 24 uur)

TLE

VersSource: Space-Track

Epoch: Sep 14, 2026, 14:46 UTC

1 14174U 83069D   26257.61572777 -.00000005  00000-0  70218-4 0  9995
2 14174  74.0233 113.9063 0010708  36.1730 352.4025 12.52545706975006

Volg COSMOS 1476 in realtime met AllMySat

Download on the App Store